| time (UTC) | temp F | wind direction | speed knots | gust knots | rain 1hr in | rain 24hr in | rain mn in | humidity % | barometer mb |
| 20260506091450 | 70 | 267 | 3.5 | 7.8 | 0.00 | 0.00 | 0.00 | 67 | 1011.9 |
| 20260506090451 | 70 | 271 | 2.6 | 2.6 | 0.00 | 0.00 | 0.00 | 66 | 1011.6 |
| 20260506085449 | 70 | 221 | 0.9 | 1.7 | 0.00 | 0.00 | 0.00 | 65 | 1011.6 |
| 20260506084449 | 70 | 262 | 1.7 | 1.7 | 0.00 | 0.00 | 0.00 | 64 | 1011.7 |
| 20260506083448 | 70 | 244 | 3.5 | 5.2 | 0.00 | 0.00 | 0.00 | 63 | 1011.5 |
| 20260506082448 | 70 | 282 | 1.7 | 1.7 | 0.00 | 0.00 | 0.00 | 62 | 1011.7 |
| 20260506081448 | 70 | 243 | 2.6 | 2.6 | 0.00 | 0.00 | 0.00 | 62 | 1011.3 |
| 20260506080448 | 70 | 289 | 4.3 | 6.1 | 0.00 | 0.00 | 0.00 | 60 | 1011.3 |
| 20260506073437 | 70 | 173 | 4.3 | 7.0 | 0.00 | 0.00 | 0.00 | 58 | 1011.5 |
| 20260506072437 | 71 | 200 | 1.7 | 1.7 | 0.00 | 0.00 | 0.00 | 58 | 1011.7 |
| 20260506071433 | 70 | 251 | 0.9 | 1.7 | 0.00 | 0.00 | 0.00 | 57 | 1011.7 |
| 20260506070432 | 70 | 208 | 3.5 | 5.2 | 0.00 | 0.00 | 0.00 | 57 | 1011.7 |
| 20260506062422 | 71 | 234 | 2.6 | 4.3 | 0.00 | 0.00 | 0.00 | 55 | 1011.9 |
| 20260506061420 | 70 | 224 | 0.9 | 1.7 | 0.00 | 0.00 | 0.00 | 56 | 1012.1 |
| 20260506060416 | 70 | 259 | 1.7 | 1.7 | 0.00 | 0.00 | 0.00 | 56 | 1012.6 |
| 20260506051411 | 71 | 274 | 2.6 | 2.6 | 0.00 | 0.00 | 0.00 | 52 | 1012.6 |
| 20260506050412 | 71 | 246 | 2.6 | 2.6 | 0.00 | 0.00 | 0.00 | 51 | 1012.8 |
| 20260506044406 | 71 | 280 | 0.9 | 0.9 | 0.00 | 0.00 | 0.00 | 51 | 1013.0 |
| 20260506043406 | 70 | 273 | 3.5 | 6.1 | 0.00 | 0.00 | 0.00 | 51 | 1012.8 |
| 20260506042403 | 70 | 270 | 0.9 | 0.9 | 0.00 | 0.00 | 0.00 | 51 | 1012.6 |
| 20260506041357 | 71 | 272 | 3.5 | 4.3 | 0.00 | 0.00 | 0.00 | 50 | 1012.6 |
| 20260506040352 | 71 | 250 | 1.7 | 1.7 | 0.00 | 0.00 | 0.00 | 50 | 1012.8 |
| 20260506035351 | 71 | 242 | 1.7 | 1.7 | 0.00 | 0.00 | 0.00 | 49 | 1012.6 |
| 20260506034351 | 71 | 157 | 2.6 | 4.3 | 0.00 | 0.00 | 0.00 | 49 | 1012.6 |
| 20260506033351 | 72 | 241 | 1.7 | 1.7 | 0.00 | 0.00 | 0.00 | 48 | 1012.8 |
| 20260506032350 | 72 | 274 | 3.5 | 5.2 | 0.00 | 0.00 | 0.00 | 48 | 1013.1 |
| 20260506031350 | 72 | 157 | 3.5 | 6.1 | 0.00 | 0.00 | 0.00 | 48 | 1013.0 |
| 20260506030346 | 72 | 224 | 2.6 | 2.6 | 0.00 | 0.00 | 0.00 | 48 | 1013.1 |
| 20260506025344 | 71 | 315 | 7.0 | 11.3 | 0.00 | 0.00 | 0.00 | 49 | 1013.4 |
| 20260506024344 | 71 | 281 | 2.6 | 2.6 | 0.00 | 0.00 | 0.00 | 50 | 1013.2 |
| 20260506023343 | 71 | 255 | 2.6 | 4.3 | 0.00 | 0.00 | 0.00 | 50 | 1013.0 |
| 20260506022343 | 71 | 254 | 1.7 | 2.6 | 0.00 | 0.00 | 0.00 | 50 | 1012.8 |
| 20260506021343 | 71 | 273 | 5.2 | 8.7 | 0.00 | 0.00 | 0.00 | 50 | 1013.0 |
| 20260506020338 | 70 | 317 | 5.2 | 7.8 | 0.00 | 0.00 | 0.00 | 50 | 1013.4 |
| 20260506015333 | 70 | 257 | 0.9 | 1.7 | 0.00 | 0.00 | 0.00 | 50 | 1013.2 |
| 20260506014332 | 70 | 240 | 4.3 | 6.1 | 0.00 | 0.00 | 0.00 | 49 | 1012.7 |
| 20260506013332 | 70 | 251 | 2.6 | 4.3 | 0.00 | 0.00 | 0.00 | 49 | 1012.5 |
| 20260506012332 | 70 | 270 | 1.7 | 1.7 | 0.00 | 0.00 | 0.00 | 49 | 1012.7 |
| 20260506011331 | 71 | 280 | 0.9 | 1.7 | 0.00 | 0.00 | 0.00 | 49 | 1012.6 |
| 20260506010326 | 71 | 241 | 2.6 | 4.3 | 0.00 | 0.00 | 0.00 | 48 | 1012.4 |
| 20260506005325 | 71 | 278 | 1.7 | 1.7 | 0.00 | 0.00 | 0.00 | 48 | 1012.3 |
| 20260506004325 | 72 | 284 | 1.7 | 2.6 | 0.00 | 0.00 | 0.00 | 48 | 1012.7 |
| 20260506003323 | 72 | 264 | 1.7 | 2.6 | 0.00 | 0.00 | 0.00 | 46 | 1012.9 |
| 20260506002322 | 73 | 245 | 0.9 | 1.7 | 0.00 | 0.00 | 0.00 | 45 | 1012.9 |
| 20260506001321 | 73 | 222 | 2.6 | 4.3 | 0.00 | 0.00 | 0.00 | 45 | 1012.6 |
| 20260506000323 | 73 | 275 | 0.0 | 0.9 | 0.00 | 0.00 | 0.00 | 45 | 1012.8 |
| 20260505235321 | 73 | 267 | 0.0 | 0.9 | 0.00 | 0.00 | 0.00 | 44 | 1013.0 |
| 20260505234316 | 73 | 291 | 4.3 | 6.1 | 0.00 | 0.00 | 0.00 | 43 | 1012.9 |
| 20260505233317 | 74 | 238 | 1.7 | 1.7 | 0.00 | 0.00 | 0.00 | 42 | 1012.7 |
| 20260505232311 | 73 | 238 | 2.6 | 4.3 | 0.00 | 0.00 | 0.00 | 43 | 1012.6 |
| 20260505231306 | 74 | 266 | 1.7 | 1.7 | 0.00 | 0.00 | 0.00 | 45 | 1012.5 |
| 20260505230306 | 75 | 248 | 0.9 | 0.9 | 0.00 | 0.00 | 0.00 | 45 | 1012.4 |
| 20260505225306 | 75 | 255 | 2.6 | 2.6 | 0.00 | 0.00 | 0.00 | 46 | 1012.7 |
| 20260505224305 | 75 | 257 | 2.6 | 5.2 | 0.00 | 0.00 | 0.00 | 45 | 1012.7 |
| 20260505223305 | 75 | 259 | 0.9 | 0.9 | 0.00 | 0.00 | 0.00 | 47 | 1012.5 |
| 20260505222305 | 75 | 267 | 1.7 | 2.6 | 0.00 | 0.00 | 0.00 | 47 | 1012.6 |
| 20260505221302 | 75 | 250 | 1.7 | 1.7 | 0.00 | 0.00 | 0.00 | 48 | 1012.7 |
| 20260505220257 | 75 | 268 | 0.9 | 1.7 | 0.00 | 0.00 | 0.00 | 50 | 1012.9 |
| 20260505215252 | 75 | 315 | 2.6 | 2.6 | 0.00 | 0.00 | 0.00 | 48 | 1012.8 |
| 20260505214247 | 75 | 245 | 2.6 | 4.3 | 0.00 | 0.00 | 0.00 | 48 | 1012.8 |
| 20260505213248 | 76 | 274 | 2.6 | 4.3 | 0.00 | 0.00 | 0.00 | 48 | 1012.8 |
| 20260505212247 | 76 | 271 | 2.6 | 2.6 | 0.00 | 0.00 | 0.00 | 47 | 1013.0 |
| 20260505211247 | 76 | 258 | 5.2 | 6.1 | 0.00 | 0.00 | 0.00 | 47 | 1013.0 |
| 20260505210246 | 76 | 217 | 0.9 | 1.7 | 0.00 | 0.00 | 0.00 | 48 | 1012.8 |
| 20260505205241 | 77 | 331 | 5.2 | 7.0 | 0.00 | 0.00 | 0.00 | 46 | 1013.1 |
| 20260505204241 | 78 | 286 | 0.9 | 0.9 | 0.00 | 0.00 | 0.00 | 45 | 1013.6 |
| 20260505203241 | 77 | 251 | 3.5 | 5.2 | 0.00 | 0.00 | 0.00 | 43 | 1013.4 |
| 20260505202238 | 78 | 322 | 1.7 | 1.7 | 0.00 | 0.00 | 0.00 | 42 | 1013.8 |
| 20260505201239 | 78 | 275 | 3.5 | 5.2 | 0.00 | 0.00 | 0.00 | 42 | 1013.8 |
| 20260505200234 | 78 | 300 | 1.7 | 1.7 | 0.00 | 0.00 | 0.00 | 41 | 1014.0 |
| 20260505195233 | 77 | 251 | 1.7 | 2.6 | 0.00 | 0.00 | 0.00 | 41 | 1014.2 |
| 20260505194232 | 77 | 293 | 2.6 | 2.6 | 0.00 | 0.00 | 0.00 | 42 | 1014.3 |
| 20260505193231 | 75 | 256 | 2.6 | 4.3 | 0.00 | 0.00 | 0.00 | 44 | 1014.2 |
| 20260505192227 | 75 | 282 | 0.9 | 1.7 | 0.00 | 0.00 | 0.00 | 43 | 1014.4 |
| 20260505191223 | 75 | 261 | 2.6 | 6.1 | 0.00 | 0.00 | 0.00 | 43 | 1014.5 |
| 20260505190219 | 75 | 270 | 1.7 | 2.6 | 0.00 | 0.00 | 0.00 | 46 | 1014.7 |
| 20260505185218 | 75 | 271 | 0.0 | 0.0 | 0.00 | 0.00 | 0.00 | 45 | 1014.8 |
| 20260505184218 | 75 | 268 | 0.9 | 0.9 | 0.00 | 0.00 | 0.00 | 46 | 1015.2 |
| 20260505183218 | 75 | 273 | 1.7 | 1.7 | 0.00 | 0.00 | 0.00 | 44 | 1015.3 |
| 20260505182217 | 74 | 289 | 0.9 | 1.7 | 0.00 | 0.00 | 0.00 | 44 | 1015.4 |
| 20260505181217 | 75 | 322 | 2.6 | 5.2 | 0.00 | 0.00 | 0.00 | 46 | 1015.8 |
| 20260505180216 | 74 | 283 | 0.9 | 1.7 | 0.00 | 0.00 | 0.00 | 45 | 1016.1 |
| 20260505175215 | 74 | 245 | 3.5 | 5.2 | 0.00 | 0.00 | 0.00 | 48 | 1015.6 |
| 20260505174214 | 74 | 264 | 2.6 | 5.2 | 0.00 | 0.00 | 0.00 | 49 | 1015.9 |
| 20260505173213 | 75 | 225 | 0.9 | 1.7 | 0.00 | 0.00 | 0.00 | 48 | 1016.3 |
| 20260505172212 | 74 | 274 | 3.5 | 6.1 | 0.00 | 0.00 | 0.00 | 47 | 1016.5 |
| 20260505171209 | 75 | 268 | 4.3 | 6.1 | 0.00 | 0.00 | 0.00 | 48 | 1016.6 |
| 20260505170209 | 74 | 335 | 2.6 | 4.3 | 0.00 | 0.00 | 0.00 | 52 | 1016.8 |
| 20260505165205 | 73 | 269 | 2.6 | 5.2 | 0.00 | 0.00 | 0.00 | 50 | 1016.9 |
| 20260505164204 | 73 | 257 | 1.7 | 2.6 | 0.00 | 0.00 | 0.00 | 51 | 1016.9 |
| 20260505163200 | 74 | 273 | 0.9 | 0.9 | 0.00 | 0.00 | 0.00 | 53 | 1017.0 |
| 20260505162201 | 73 | 278 | 1.7 | 1.7 | 0.00 | 0.00 | 0.00 | 50 | 1017.0 |
| 20260505161200 | 73 | 283 | 4.3 | 7.0 | 0.00 | 0.00 | 0.00 | 53 | 1017.0 |
| 20260505160155 | 73 | 170 | 2.6 | 4.3 | 0.00 | 0.00 | 0.00 | 54 | 1016.9 |
| 20260505153152 | 73 | 234 | 1.7 | 2.6 | 0.00 | 0.00 | 0.00 | 56 | 1016.8 |
| 20260505152150 | 71 | 265 | 7.0 | 8.7 | 0.00 | 0.00 | 0.00 | 55 | 1016.8 |
| 20260505151149 | 70 | 256 | 1.7 | 1.7 | 0.00 | 0.00 | 0.00 | 57 | 1017.0 |
| 20260505150148 | 70 | 284 | 5.2 | 6.1 | 0.00 | 0.00 | 0.00 | 55 | 1016.8 |
| 20260505140148 | 69 | 126 | 2.6 | 2.6 | 0.00 | 0.00 | 0.00 | 57 | 1017.1 |
| 20260505130135 | 66 | 260 | 0.0 | 0.9 | 0.00 | 0.00 | 0.00 | 65 | 1016.9 |
| 20260505124133 | 63 | 289 | 0.0 | 0.9 | 0.00 | 0.00 | 0.00 | 68 | 1016.7 |
| 20260505123132 | 62 | 197 | 1.7 | 1.7 | 0.00 | 0.00 | 0.00 | 71 | 1016.7 |
| 20260505122132 | 59 | 316 | 0.9 | 0.9 | 0.00 | 0.00 | 0.00 | 78 | 1016.7 |
| 20260505121131 | 58 | 315 | 0.0 | 0.9 | 0.00 | 0.00 | 0.00 | 81 | 1016.5 |
| 20260505120129 | 57 | 315 | 0.9 | 0.9 | 0.00 | 0.00 | 0.00 | 82 | 1016.6 |
| 20260505115127 | 56 | 312 | 0.0 | 0.9 | 0.00 | 0.00 | 0.00 | 80 | 1016.2 |
| 20260505114126 | 56 | 312 | 0.0 | 0.9 | 0.00 | 0.00 | 0.00 | 78 | 1016.4 |
| 20260505113125 | 56 | 310 | 0.9 | 0.9 | 0.00 | 0.00 | 0.00 | 76 | 1016.0 |
| 20260505112120 | 55 | 310 | 0.9 | 0.9 | 0.00 | 0.00 | 0.00 | 76 | 1016.0 |
| 20260505111115 | 55 | 307 | 0.9 | 0.9 | 0.00 | 0.00 | 0.00 | 80 | 1015.9 |
| 20260505110115 | 54 | 310 | 0.0 | 0.0 | 0.00 | 0.00 | 0.00 | 79 | 1015.8 |
| 20260505102108 | 55 | 310 | 0.9 | 0.9 | 0.00 | 0.00 | 0.00 | 75 | 1015.6 |
| 20260505101108 | 55 | 305 | 0.0 | 0.9 | 0.00 | 0.00 | 0.00 | 77 | 1015.7 |
| 20260505100107 | 55 | 261 | 0.0 | 0.0 | 0.00 | 0.00 | 0.00 | 77 | 1015.9 |
| 20260505095105 | 56 | 261 | 0.0 | 0.0 | 0.00 | 0.00 | 0.00 | 74 | 1015.4 |
| 20260505094104 | 57 | 262 | 0.0 | 0.0 | 0.00 | 0.00 | 0.00 | 70 | 1015.8 |
| 20260505093104 | 58 | 265 | 0.9 | 0.9 | 0.00 | 0.00 | 0.00 | 69 | 1015.4 |